STARLINK-34471

Last updated on Sat Aug 02 2025 00:02:05 GMT+0000 (Coordinated Universal Time)

1 64739U 25144R 25213.58335648 .00083200 00000+0 20720-2 0 9995 2 64739 53.1594 124.7909 0001285 90.9058 251.2852 15.39551469 6039
UTC large
Height (km)
Speed (km/s)
/
Latitude / Longitude
Inclination (degrees)
Orbital Period (minutes)
Azimuth
Elevation
Range (km)
Doppler Factor

Next 0 passes for location: London (51.5072 / 0.1276)

Sorry there are no passes over London.